TimeEDT,TemperatureF,Dew PointF,Humidity,Sea Level PressureIn,VisibilityMPH,Wind Direction,Wind SpeedMPH,Gust SpeedMPH,PrecipitationIn,Events,Conditions,WindDirDegrees,DateUTC
12:53 AM,35.1,26.1,70,29.93,10.0,NNW,10.4,-,N/A,,Overcast,330,2013-03-26 04:53:00
1:53 AM,34.0,27.0,75,29.94,10.0,NNW,10.4,-,N/A,,Overcast,340,2013-03-26 05:53:00
2:53 AM,34.0,27.0,75,29.95,10.0,NNW,8.1,-,N/A,,Overcast,330,2013-03-26 06:53:00
3:53 AM,33.1,26.1,75,29.95,10.0,NNW,9.2,-,N/A,,Overcast,330,2013-03-26 07:53:00
4:53 AM,33.1,25.0,72,29.96,10.0,NNW,10.4,-,N/A,,Overcast,330,2013-03-26 08:53:00
5:53 AM,33.1,25.0,72,29.97,10.0,NNW,10.4,-,N/A,,Overcast,330,2013-03-26 09:53:00
7:53 AM,33.1,26.1,75,30.01,10.0,NW,6.9,-,N/A,,Overcast,310,2013-03-26 11:53:00
8:53 AM,34.0,26.1,73,30.03,10.0,NW,8.1,-,N/A,,Overcast,320,2013-03-26 12:53:00
9:53 AM,35.1,27.0,72,30.04,10.0,NW,11.5,-,N/A,,Overcast,320,2013-03-26 13:53:00
10:53 AM,37.0,27.0,67,30.05,10.0,WNW,9.2,-,N/A,,Overcast,300,2013-03-26 14:53:00
11:53 AM,42.1,28.0,58,30.06,10.0,NW,11.5,18.4,N/A,,Mostly Cloudy,320,2013-03-26 15:53:00
12:01 PM,41.0,28.4,61,30.04,10.0,NNW,8.1,-,N/A,,Mostly Cloudy,340,2013-03-26 16:01:00
12:15 PM,42.8,28.4,57,30.04,10.0,NW,13.8,-,N/A,,Scattered Clouds,320,2013-03-26 16:15:00
12:26 PM,42.8,28.4,57,30.04,10.0,NNW,9.2,19.6,N/A,,Mostly Cloudy,330,2013-03-26 16:26:00
12:53 PM,43.0,28.0,56,30.05,10.0,NW,10.4,-,N/A,,Overcast,320,2013-03-26 16:53:00
1:18 PM,42.8,26.6,53,30.03,10.0,NNW,9.2,-,N/A,,Overcast,330,2013-03-26 17:18:00
1:53 PM,41.0,26.1,55,30.05,10.0,NNW,16.1,-,N/A,,Overcast,340,2013-03-26 17:53:00
2:53 PM,42.1,26.1,53,30.05,10.0,WNW,11.5,-,N/A,,Mostly Cloudy,300,2013-03-26 18:53:00
3:53 PM,41.0,23.0,49,30.05,10.0,NNW,12.7,-,N/A,,Overcast,340,2013-03-26 19:53:00
4:53 PM,37.9,24.1,57,30.06,10.0,NW,15.0,20.7,N/A,,Overcast,310,2013-03-26 20:53:00
5:53 PM,39.0,21.9,50,30.07,10.0,WNW,9.2,-,N/A,,Overcast,300,2013-03-26 21:53:00
6:53 PM,39.0,25.0,57,30.08,10.0,WNW,10.4,-,N/A,,Overcast,300,2013-03-26 22:53:00
7:53 PM,37.0,26.1,65,30.10,10.0,West,10.4,-,N/A,,Overcast,280,2013-03-26 23:53:00
8:53 PM,36.0,27.0,70,30.12,10.0,WNW,11.5,-,N/A,,Overcast,290,2013-03-27 00:53:00
9:53 PM,35.1,28.0,76,30.13,9.0,WNW,6.9,-,0.00,Snow,Light Snow,300,2013-03-27 01:53:00
10:53 PM,35.1,28.0,76,30.12,10.0,WNW,10.4,-,0.00,,Overcast,290,2013-03-27 02:53:00
11:53 PM,35.1,28.9,78,30.12,10.0,WNW,12.7,-,N/A,,Overcast,300,2013-03-27 03:53:00